Погода в Алешкине

Россия / Ульяновская область     53°52′24″N   48°48′41″E
темп.,
°C
ветер,
м/с
пор.,
м/с
влажн.,
%
обл.,
%
осадки,
мм/ч
давл.,
гПа
погр.,
м
15 апреля, чт
чт1501:00+10юв11850 0.0 102210
04:00+8всв11870 0.0 102210
07:00+8вюв11870 0.0 102110
10:00+13юв34620 0.0 1020299
13:00+17ююв344874 0.0 1019617
16:00+19ююв34390 0.0 10181024
19:00+16вюв225231 0.0 101811
22:00+13всв115880 0.0 101910
16 апреля, пт
пт1601:00+12всв0061100 0.0 101810
04:00+11ссв1164100 0.0 101910
07:00+10ссв2274100 0.0 101928
10:00+13ссв3562100 0.0 1020279
13:00+16св4551100 0.0 1020546
16:00+17ссв454577 0.0 1020713
19:00+14ссз476593 0.0 1020167
22:00+11с5117899 0.0 1022276
17 апреля, сб
сб1701:00+9ссв5108663 0.0 1022257
04:00+7св5109417 0.0 1023227
07:00+6св5109319 0.0 1024257
10:00+9св68735 0.0 1024417
13:00+12св78545 0.0 1024635
16:00+14св68435 0.0 1023823
19:00+11св49494 0.0 1023263
22:00+8св512570 0.0 1023260
18 апреля, вс
вс1801:00+5св410660 0.0 1023213
04:00+4св512670 0.0 1023244
07:00+4св511716 0.0 1023302
10:00+8всв69543 0.0 1023573
13:00+11всв674173 0.0 10221012
16:00+12св5740100 0.0 1022955
19:00+10св5105088 0.0 1022402
22:00+8св5125893 0.0 1023403
19 апреля, пн
пн1901:00+5всв61276100 0.0 1025513
04:00+3св51171100 0.0 1026414
07:00+2св61266100 0.0 1027461
10:00+4всв71059100 0.0 1027769
13:00+7всв7958100 0.0 10271349
16:00+8в7953100 0.0 10261407
19:00+7в5958100 0.0 10261120
22:00+5всв51163100 0.0 1027500